RH
12 14 17 18 19 20 21 22 21 20 21 22 24 25 26 25 23 19 20 24 22 20 24 26 25 25 23 22 19 16 18 18 16 17 17 17 17 17 18 19 20 20 21 20 20 21 24 25 27 30 32 34 35 36 37 39 41 42 43 42 42 43 44 45 45 45 44 43 43 41 41 40 40 41 41 41 42 42 42 42 43 44 45 46 47 50
12 14 17 19 22 22 23 25 24 24 24 25 24 24 24 23 19 17 20 24 21 20 25 26 23 23 21 19 18 17 19 19 18 18 18 18 19 19 20 21 21 22 22 22 23 23 24 25 26 27 29 30 32 33 33 34 37 40 42 44 44 45 46 46 46 45 44 44 45 45 46 47 48 50 51 52 52 52 52 52 52 52 52 54 54 56
15 15 17 20 23 23 25 27 25 24 25 24 23 22 20 19 19 19 21 23 20 19 24 25 21 20 19 19 20 19 19 18 18 19 18 18 19 20 20 21 21 22 23 23 25 25 25 25 25 25 25 25 25 26 27 27 29 32 35 38 39 40 41 42 43 43 44 45 47 48 50 51 52 53 55 56 57 57 57 57 58 59 60 60 58 57
15 16 18 21 23 22 22 25 24 23 22 21 20 18 17 18 19 20 20 21 20 19 23 24 21 20 20 20 20 19 16 16 17 18 18 18 18 20 21 21 22 22 23 24 25 26 26 26 26 26 24 22 21 22 22 22 23 24 27 29 30 32 34 37 39 40 40 41 42 43 44 45 46 46 48 49 51 53 53 52 54 57 60 61 58 57
16 16 18 22 25 21 20 23 23 20 19 21 20 15 15 18 20 20 21 22 22 21 23 22 18 18 19 18 20 20 19 18 18 18 18 18 18 20 22 22 23 24 25 26 27 28 28 28 28 27 24 21 19 18 17 16 16 17 21 24 26 28 30 32 33 33 34 34 35 35 35 36 37 37 39 41 44 47 47 48 50 52 54 55 55 56
17 17 18 21 24 22 19 20 20 19 20 20 19 17 15 18 21 23 25 23 20 19 21 22 18 16 17 16 19 25 24 21 21 22 20 19 20 22 24 26 26 28 29 30 31 30 30 29 27 25 22 19 18 16 15 14 13 14 18 22 25 27 28 29 30 30 31 32 32 32 32 33 34 34 35 37 38 39 41 44 46 48 50 52 53 55
17 18 20 21 20 20 17 16 16 19 20 15 15 18 18 21 23 24 26 21 17 17 21 27 24 18 16 13 19 27 27 24 25 25 23 19 20 23 26 29 30 32 34 34 33 31 29 27 25 23 22 22 22 20 19 16 14 15 19 23 26 28 29 30 30 31 32 33 33 34 34 34 34 34 34 34 35 36 37 39 40 44 47 49 50 52
17 19 22 22 18 17 15 14 15 18 18 13 14 19 20 22 23 25 25 21 22 21 24 34 29 22 23 17 19 26 24 26 27 26 27 23 20 23 28 32 35 37 39 37 35 31 29 28 27 28 28 29 29 28 27 24 20 19 21 25 28 31 33 34 35 35 35 36 37 37 38 37 38 39 37 37 37 36 37 36 37 40 42 44 47 49
18 18 18 19 17 15 13 13 17 19 18 17 19 22 22 24 25 27 27 26 29 23 22 33 28 22 26 19 19 24 21 25 26 26 31 28 23 27 31 36 40 42 42 39 35 32 33 35 34 34 35 35 35 34 33 32 30 27 27 30 32 33 35 38 39 40 41 42 42 42 43 42 42 43 41 40 40 40 40 39 38 39 39 41 45 48
17 17 16 18 16 14 14 16 20 21 18 20 22 21 23 27 27 28 29 28 30 24 21 29 26 23 26 18 19 23 19 23 25 25 30 30 30 35 39 44 46 43 40 37 35 36 39 40 37 37 39 39 39 37 36 36 35 34 34 35 37 37 38 40 42 44 46 47 48 48 49 47 45 44 43 42 42 42 43 43 42 42 41 41 43 47
15 17 18 19 15 15 18 20 22 23 20 20 21 18 17 22 24 28 31 25 22 22 23 28 26 26 30 25 23 24 23 27 28 26 27 29 34 41 46 48 44 38 39 40 40 43 46 44 40 41 43 43 43 42 40 39 39 39 40 41 42 43 43 44 44 45 47 49 50 51 51 51 48 47 47 45 44 46 47 46 46 47 46 45 44 45
15 17 16 17 16 17 20 18 20 25 24 21 21 17 13 16 19 26 29 22 17 18 23 28 27 27 32 30 24 27 33 35 32 29 29 31 35 38 43 44 40 39 44 47 47 49 51 48 45 45 44 45 44 43 43 43 43 44 45 46 48 49 49 49 49 49 50 51 52 53 53 52 51 49 50 48 46 47 48 46 46 47 49 49 48 47
16 15 14 15 17 18 18 15 17 23 22 20 21 20 21 25 25 26 28 26 23 20 19 26 28 27 29 27 24 30 37 36 32 33 34 36 38 38 40 43 43 45 50 54 55 55 55 53 50 48 46 46 45 45 45 44 45 47 49 51 52 55 56 54 54 55 57 58 59 60 58 55 53 50 50 49 47 47 47 47 46 45 46 49 51 49
14 15 14 14 15 16 16 15 16 20 21 22 24 25 29 33 32 35 37 33 27 22 19 24 30 29 25 23 27 33 35 32 31 35 39 40 43 44 44 47 47 49 55 61 62 60 60 59 56 53 51 50 50 50 50 49 49 50 52 54 56 58 60 60 59 59 61 64 67 67 65 61 59 56 54 52 51 51 50 51 50 48 47 48 50 50
14 14 14 13 13 16 18 18 19 21 23 27 28 28 31 33 33 37 39 34 29 29 28 25 28 30 23 21 28 31 31 32 33 37 40 42 44 48 50 51 52 53 58 65 67 66 66 65 63 61 60 59 58 58 58 59 59 58 59 61 62 64 65 65 65 63 61 63 67 68 66 65 65 65 62 61 60 59 57 57 56 55 52 50 53 55
16 13 14 15 16 18 20 20 22 23 23 27 28 28 31 34 34 37 39 34 35 42 44 34 29 29 23 21 29 31 31 33 33 35 37 39 42 46 52 56 57 61 65 69 71 73 73 73 72 72 71 71 71 70 71 70 69 68 67 67 68 69 70 70 71 68 65 64 67 69 69 71 73 73 71 69 67 66 63 60 58 58 57 54 57 60
17 13 15 17 18 20 21 22 23 23 22 25 26 25 29 33 35 41 43 39 41 47 45 35 29 27 25 25 29 31 31 31 31 33 35 38 42 46 52 59 63 67 71 72 75 77 79 79 78 78 78 79 78 76 75 76 75 74 73 72 71 70 71 72 73 74 72 71 71 73 75 77 79 79 77 71 68 66 63 61 58 57 57 60 63 65
19 18 19 18 17 20 21 22 25 25 24 25 26 27 29 33 37 43 46 45 48 49 40 30 27 28 29 32 33 33 35 35 34 37 40 42 46 50 55 61 65 70 73 76 79 81 82 80 78 78 78 77 76 73 73 73 73 73 74 75 74 72 71 71 71 72 73 73 73 74 76 78 78 78 76 72 68 67 65 64 63 62 60 63 66 68
22 22 22 21 20 20 20 21 22 25 26 25 25 27 30 33 37 40 42 44 48 50 46 37 31 31 35 40 44 45 45 44 44 45 48 49 51 55 58 63 68 73 77 79 79 79 78 77 76 75 73 71 70 68 67 66 66 67 69 71 71 71 71 70 69 68 69 69 69 69 70 72 73 72 71 71 69 69 68 66 67 69 68 67 66 67
24 23 21 21 22 21 18 18 18 22 28 28 27 29 30 33 36 37 38 42 46 51 56 51 39 37 44 47 51 55 53 53 54 53 54 56 58 62 67 71 75 77 76 74 73 73 75 76 74 70 68 66 64 61 60 60 61 61 63 64 66 67 66 66 66 66 66 66 66 66 66 67 68 69 69 68 69 70 71 70 71 73 74 74 71 68
24 23 22 21 22 20 17 18 17 19 24 26 26 28 29 31 35 36 34 37 43 47 57 65 55 45 49 51 53 59 58 58 61 61 63 65 68 73 75 76 76 73 70 69 68 70 74 75 69 62 60 61 61 61 59 58 59 58 58 59 61 62 62 60 59 58 58 58 59 59 61 63 64 66 68 69 69 70 72 74 76 77 79 80 77 74
24 26 26 24 23 19 16 18 19 19 22 25 26 27 29 31 33 39 40 38 42 45 51 65 62 49 51 55 57 63 66 68 72 74 74 76 78 79 76 75 75 71 67 67 66 69 72 68 60 55 53 54 56 57 56 54 52 51 52 54 55 57 57 56 54 52 50 50 51 51 51 53 56 59 63 64 65 66 68 72 75 77 80 83 83 81
26 29 28 26 23 19 18 20 22 23 23 24 26 28 31 33 34 42 48 45 46 46 47 58 62 54 56 62 65 71 75 77 78 79 81 81 79 77 75 74 73 67 64 63 64 67 68 61 55 52 49 48 50 52 52 51 50 48 49 52 54 54 54 54 54 52 51 49 49 47 44 43 43 47 53 56 58 58 60 65 69 72 77 80 83 84
27 29 28 24 22 18 17 19 21 24 24 22 26 32 35 37 39 43 48 51 53 51 54 67 68 56 56 66 70 75 78 77 77 79 81 80 76 74 74 74 71 65 59 55 55 58 58 54 52 52 51 50 51 52 51 51 50 49 50 50 51 51 51 53 53 53 53 51 48 45 42 37 34 36 40 46 51 53 54 58 63 70 76 80 81 82
26 28 27 25 24 20 18 19 18 20 21 20 25 34 37 38 42 46 49 55 59 55 58 72 69 53 54 67 70 72 78 78 77 78 77 73 69 67 67 66 63 58 53 48 48 50 50 50 51 51 52 54 53 49 48 47 47 46 46 44 42 42 42 44 46 47 46 46 44 41 39 37 35 34 35 38 43 46 49 53 58 66 71 74 77 80
26 27 27 27 28 28 29 27 23 22 23 21 26 36 40 42 48 53 55 61 66 63 61 68 71 63 61 68 72 75 81 82 78 73 65 56 51 52 56 57 53 51 51 49 46 44 42 43 43 43 44 46 46 47 48 49 49 48 47 45 43 43 43 42 43 43 42 41 41 41 42 45 47 45 41 38 38 39 40 42 46 54 59 59 63 71
31 29 28 29 27 27 28 26 23 26 28 27 33 40 43 47 53 56 60 65 69 71 67 65 72 76 73 76 83 85 84 79 68 58 53 51 53 55 55 52 47 45 42 39 36 36 36 36 36 38 41 44 47 52 57 60 59 55 52 50 49 50 50 50 50 49 49 49 49 48 50 53 58 60 57 53 48 44 42 39 38 44 52 54 55 61
31 28 29 30 28 25 26 24 24 28 31 35 42 46 46 50 52 53 59 65 68 76 76 66 69 83 87 87 89 85 75 63 54 55 60 60 57 51 44 38 36 34 32 32 33 35 37 38 41 45 49 51 55 61 66 65 62 59 57 57 58 58 58 59 58 57 57 58 58 59 59 58 59 63 65 65 63 59 54 49 44 45 51 54 54 59
28 27 29 31 30 27 26 26 28 31 37 42 46 48 49 50 52 53 58 64 70 79 80 73 75 86 88 83 76 68 59 54 55 60 57 47 37 33 32 32 32 32 33 34 37 39 42 46 51 54 54 56 62 66 68 65 61 61 61 62 63 64 64 64 63 61 62 62 63 64 64 63 61 62 65 67 67 68 66 59 54 54 59 60 54 55
26 30 34 34 32 27 25 27 30 33 39 45 46 48 49 48 49 53 58 64 70 75 75 77 81 80 76 71 66 59 53 51 49 44 34 27 27 29 31 31 32 34 37 39 43 46 50 54 55 54 55 59 65 69 70 68 65 64 65 65 66 67 67 67 66 66 66 66 66 66 66 65 64 64 67 68 68 70 70 66 62 61 65 69 63 55
25 30 36 36 31 24 21 25 29 32 40 45 46 46 45 44 47 53 60 68 75 76 74 76 79 74 68 66 62 53 46 39 32 26 25 27 30 30 30 33 37 44 47 49 52 54 55 56 55 55 59 64 68 73 75 73 70 69 68 68 69 71 71 71 71 71 71 71 71 70 70 70 70 71 72 72 72 71 71 71 70 66 66 72 72 65
31 32 33 35 33 25 20 23 28 34 40 44 46 45 46 51 55 59 65 71 75 77 76 76 78 74 66 60 51 39 32 27 24 25 30 32 32 34 39 45 53 58 57 56 58 58 58 60 62 64 67 69 73 79 80 78 75 73 72 72 74 75 77 78 78 76 76 76 75 73 73 74 75 75 74 71 70 70 70 72 72 68 67 71 75 73
37 34 33 38 38 29 24 27 32 34 36 41 47 51 55 61 63 63 67 70 68 68 75 78 74 65 53 43 35 27 25 25 27 30 35 38 42 47 53 60 65 64 62 63 65 66 68 71 73 72 71 73 79 83 82 81 79 77 75 75 76 80 83 84 83 80 79 80 78 75 74 75 73 72 71 70 71 72 73 74 74 72 73 74 73 73
41 37 37 42 44 37 33 34 35 34 35 41 49 55 61 68 72 69 66 65 58 53 60 64 56 44 34 28 26 27 28 29 31 34 39 48 57 64 67 70 72 71 71 74 74 75 77 79 77 75 74 78 82 82 81 82 81 79 76 76 78 83 87 86 83 83 83 82 79 77 78 77 74 74 74 75 76 79 80 81 81 78 77 75 71 70
41 41 41 45 48 44 41 44 47 43 44 49 54 59 64 68 70 63 52 49 50 50 52 50 39 29 26 24 26 29 30 31 33 36 45 58 69 76 78 79 81 83 84 84 82 81 82 81 80 79 80 84 85 85 85 85 84 82 80 80 85 89 89 89 88 89 89 85 81 81 80 78 77 79 81 82 84 86 88 88 85 82 81 80 78 79
37 41 44 47 50 47 46 56 60 53 53 60 63 63 66 66 65 62 52 42 44 49 47 39 29 25 26 27 28 30 33 37 38 41 55 70 77 81 86 88 88 89 88 87 86 85 85 86 87 88 88 89 91 91 91 89 89 88 86 87 92 93 93 94 96 97 95 90 86 84 82 80 82 83 84 86 87 89 90 90 88 87 89 89 89 92
38 43 44 46 51 55 58 61 57 49 52 62 67 68 70 69 67 65 56 40 34 38 37 31 28 29 28 29 32 36 42 48 47 46 58 72 78 81 86 88 89 88 87 87 88 89 90 92 93 93 93 94 95 95 95 93 93 93 93 93 95 95 94 96 98 99 99 94 90 85 82 82 83 83 82 83 86 88 91 92 89 89 93 96 96 97
40 44 47 49 54 60 64 62 58 56 56 62 70 72 67 62 56 49 43 35 30 31 31 30 31 31 29 33 42 50 57 61 57 53 60 72 76 79 83 84 87 88 87 89 91 92 93 94 95 96 97 97 97 97 96 96 96 96 97 97 95 95 94 95 97 99 97 94 90 85 81 81 83 85 86 89 92 93 92 91 90 91 95 98 99 98
41 45 49 54 58 61 64 65 65 65 62 63 71 69 58 49 41 33 36 37 32 28 30 31 32 32 35 45 57 67 75 76 66 57 62 73 77 79 83 85 86 89 91 94 96 95 94 95 95 96 97 97 96 94 93 94 95 96 97 97 94 93 91 93 97 96 94 92 89 83 79 80 84 89 92 92 93 93 89 88 90 93 95 95 95 95
42 47 50 55 59 61 64 65 62 60 61 61 62 60 50 37 28 35 48 47 35 30 33 34 34 38 48 61 69 74 81 86 80 68 66 74 76 78 83 85 87 92 96 97 98 98 97 97 97 97 98 97 95 93 92 93 94 96 97 95 93 91 91 94 94 91 90 90 86 80 78 80 85 90 92 90 89 88 89 92 96 98 98 98 98 98
43 47 49 54 57 60 65 67 58 53 57 57 50 46 40 31 31 47 58 50 39 37 37 35 40 52 65 73 77 77 78 83 85 79 74 75 75 74 78 82 87 93 96 97 97 97 97 98 99 99 99 100 99 97 96 95 96 98 98 95 93 92 93 94 90 86 87 87 83 77 76 81 86 89 90 89 88 89 93 98 101 101 101 100 99 100
48 50 52 56 59 60 63 64 59 52 50 48 42 36 33 37 47 54 50 42 42 42 39 39 49 65 77 79 79 80 79 79 81 81 80 80 78 76 76 80 84 87 89 91 92 92 92 92 93 96 97 99 101 100 98 99 100 101 100 97 94 94 95 93 87 84 86 84 79 75 75 81 86 88 88 89 89 92 96 99 101 100 100 101 99 98
54 55 59 62 63 62 61 62 64 57 46 43 42 37 34 41 51 49 43 42 43 42 44 51 60 74 86 85 82 82 81 79 81 83 84 84 84 82 81 82 84 85 87 89 89 89 89 88 89 92 95 97 99 98 97 99 101 101 101 98 95 95 96 91 84 83 84 81 76 74 77 82 84 84 87 88 90 95 99 99 99 100 100 101 100 98
56 59 65 64 62 65 68 65 61 53 43 40 41 37 33 36 39 39 42 44 41 43 56 66 71 79 87 88 86 85 84 84 86 88 88 88 89 89 87 86 89 90 91 92 90 90 91 92 92 93 94 97 100 98 97 99 102 102 101 97 94 94 93 87 80 79 81 78 75 75 77 80 79 79 84 86 90 97 101 99 100 101 100 100 100 98
55 57 60 60 58 59 60 55 48 41 37 33 30 28 28 30 31 34 40 41 40 48 65 75 78 81 86 89 90 89 89 90 91 92 94 93 92 94 93 91 93 93 93 94 94 94 96 97 96 95 95 98 101 99 97 98 101 102 101 96 91 91 91 85 77 76 77 76 75 74 74 75 75 77 80 84 91 97 99 97 98 100 100 100 100 99
53 51 53 58 56 47 38 33 32 31 29 24 24 26 28 28 29 33 37 37 39 49 63 74 79 80 84 90 93 91 91 93 94 95 97 96 95 96 96 95 94 95 96 97 97 97 98 98 98 98 97 98 99 99 97 97 99 102 102 95 87 87 90 84 74 73 75 75 74 73 71 71 73 75 77 82 90 95 95 96 99 100 100 100 100 100
48 48 52 56 53 41 30 24 23 25 26 25 27 29 28 27 28 31 33 35 40 49 58 66 75 81 83 86 91 92 92 95 97 96 95 95 96 97 96 96 96 97 98 100 99 99 99 99 98 98 98 98 98 98 98 98 99 102 101 92 84 85 89 81 71 70 74 73 71 70 69 69 72 73 75 81 87 91 95 99 100 100 100 100 100 100
46 46 48 47 40 33 29 23 21 23 25 25 27 28 26 27 29 29 31 37 44 50 52 55 66 80 84 84 88 91 92 96 98 97 95 96 97 97 96 96 96 97 98 99 100 100 100 100 98 98 99 99 98 97 97 98 99 100 98 91 85 86 87 77 67 68 73 72 70 67 66 68 71 71 73 79 83 88 96 101 101 100 101 100 100 100
45 44 42 37 31 28 27 24 24 26 25 23 25 26 26 29 32 32 35 42 48 52 52 51 56 69 81 88 92 93 93 96 98 97 97 99 100 98 96 94 93 95 97 98 98 100 101 101 99 98 98 98 97 96 96 97 99 99 98 92 86 85 84 75 65 65 69 69 68 66 64 67 69 69 73 78 81 87 97 101 100 99 99 98 99 100
45 41 36 33 33 32 31 30 32 35 33 29 29 30 30 33 37 40 44 51 53 55 58 58 57 59 69 83 95 98 97 97 98 97 99 102 101 98 96 94 93 93 93 92 93 95 99 102 102 98 97 97 96 95 95 97 99 99 98 95 88 85 83 76 67 64 66 67 67 66 65 68 69 70 75 77 79 87 98 100 99 99 97 95 96 98
44 38 33 34 36 35 33 33 35 38 37 33 33 35 35 38 44 50 55 58 59 61 63 65 65 66 66 73 88 97 98 97 98 99 99 99 98 96 95 94 93 91 89 88 88 89 93 98 101 99 97 96 95 94 94 97 99 98 98 96 89 83 83 79 71 65 65 66 66 65 67 71 71 72 74 75 76 86 97 100 99 100 99 96 95 97